Tracking 28790 objects as of 18-Apr-2024
HD Live streaming from Space Station
objects crossing your sky now

COSMOS 2251 DEB

Track COSMOS 2251 DEB now!
10-day predictions


NORAD ID: 35446
Int'l Code: 1993-036AKQ
Perigee: 666.1 km
Apogee: 777.3 km
Inclination: 74.0 °
Period: 99.1 minutes
Semi major axis: 7092 km
RCS: 0.0088 m2 (small)
Launch date: June 16, 1993
Source: Commonwealth of Independent States (former USSR) (CIS)
Launch site: PLESETSK MISSILE AND SPACE COMPLEX (PKMTR)

Note: This is SATELLITE DEBRIS
Your satellite tracking list
Your tracking list is empty




NASA's NSSDC Master Catalog

Two Line Element Set (TLE):
1 35446U 93036AKQ 24107.45474291  .00001131  00000-0  26809-3 0  9997
2 35446  74.0493  21.6764 0078369 293.3662  65.9269 14.53404831792245
Source of the keplerian elements: AFSPC